TimeCAT,TemperatureF,Dew PointF,Humidity,Sea Level PressureIn,VisibilityMPH,Wind Direction,Wind SpeedMPH,Gust SpeedMPH,PrecipitationIn,Events,Conditions,WindDirDegrees,DateUTC
12:00 AM,64.4,60.8,88,30.04,6.2,East,15.0,-,N/A,,Mostly Cloudy,90,2012-12-09 22:00:00
1:00 AM,66.2,60.8,83,29.98,6.2,ENE,13.8,-,N/A,Thunderstorm,Thunderstorm,70,2012-12-09 23:00:00
2:00 AM,66.2,60.8,83,30.01,6.2,Variable,2.3,-,N/A,Thunderstorm,Thunderstorm,0,2012-12-10 00:00:00
4:00 AM,64.4,60.8,88,30.01,6.2,North,6.9,-,N/A,,Scattered Clouds,360,2012-12-10 02:00:00
5:00 AM,64.4,60.8,88,29.98,6.2,NNE,5.8,-,N/A,,Scattered Clouds,30,2012-12-10 03:00:00
6:00 AM,64.4,60.8,88,29.95,6.2,NNE,6.9,-,N/A,,Mostly Cloudy,20,2012-12-10 04:00:00
7:00 AM,66.2,60.8,83,29.98,6.2,Variable,2.3,-,N/A,,Mostly Cloudy,0,2012-12-10 05:00:00
8:00 AM,68,61,73,,6,East,4.6,,,,Partly Cloudy,100,2012-12-10 06:00:00
8:00 AM,68.0,60.8,78,29.98,6.2,East,4.6,-,N/A,,Mostly Cloudy,100,2012-12-10 06:00:00
9:00 AM,69.8,60.8,73,29.98,6.2,NE,8.1,-,N/A,,Scattered Clouds,40,2012-12-10 07:00:00
10:00 AM,71.6,62.6,73,29.98,6.2,ENE,11.5,-,N/A,,Scattered Clouds,60,2012-12-10 08:00:00
11:00 AM,73.4,62.6,69,29.98,6.2,NE,10.4,-,N/A,,Scattered Clouds,50,2012-12-10 09:00:00
12:00 PM,75.2,64.4,69,29.95,6.2,NE,11.5,-,N/A,,Scattered Clouds,50,2012-12-10 10:00:00
1:00 PM,78.8,57.2,47,29.92,6.2,NE,13.8,-,N/A,,Scattered Clouds,40,2012-12-10 11:00:00
2:00 PM,80.6,60.8,51,29.92,6.2,NE,12.7,-,N/A,,Partly Cloudy,40,2012-12-10 12:00:00
3:00 PM,80.6,57.2,45,29.89,6.2,NE,11.5,-,N/A,,Partly Cloudy,50,2012-12-10 13:00:00
4:00 PM,82.4,55.4,39,29.83,6.2,NE,11.5,-,N/A,,Partly Cloudy,50,2012-12-10 14:00:00
5:00 PM,80.6,55.4,42,29.83,6.2,NNE,9.2,-,N/A,,Partly Cloudy,30,2012-12-10 15:00:00
6:00 PM,80.6,57.2,45,29.80,6.2,NE,9.2,-,N/A,,Partly Cloudy,40,2012-12-10 16:00:00
7:00 PM,77.0,59.0,54,29.80,6.2,NE,6.9,-,N/A,,Partly Cloudy,50,2012-12-10 17:00:00
8:00 PM,77.0,60.8,57,29.83,6.2,East,11.5,-,N/A,,Partly Cloudy,80,2012-12-10 18:00:00
9:00 PM,75.2,60.8,61,29.86,6.2,ESE,10.4,-,N/A,,Partly Cloudy,110,2012-12-10 19:00:00
9:33 PM,64.4,59.0,83,29.95,3.7,Variable,9.2,-,N/A,Rain-Thunderstorm,Thunderstorms and Rain,0,2012-12-10 19:33:00
10:00 PM,62.6,60.8,94,29.89,5.0,SE,29.9,44.9,N/A,Rain-Thunderstorm,Thunderstorms and Rain,130,2012-12-10 20:00:00
11:00 PM,60.8,59.0,94,30.01,-9999.0,WSW,20.7,-,N/A,Rain-Thunderstorm,Heavy Thunderstorms and Rain,250,2012-12-10 21:00:00